Hauptseite
METAR-TAF:

METAR-TAF

Flughäfen :

Flughafen Le Luc-Le Cannet

Le Luc, Frankreich

Breite: 43-23N, Länge: 006-23E, Höhe: 80 m

Beobachtung

Neuester Wetterbericht von vor 15 Minuten, um 02:00 UTC
Windstille
Temperatur 16°C
Luftfeuchtigkeit 94%
Luftdruck 1017 hPa
Sichtweite: 8000 m

METAR: LFMC 260200Z AUTO 00000KT 8000 ////// 16/15 Q1017

Zeit: 04:15 (02:15 UTC)


TAF: fehlend

Wetterbeobachtungen und Prognosen von mehr als 4000 Flughäfen (METAR und TAF Bericht).

Die verfügbaren Stationen werden durch gelbe und rote Markierungen auf der Karte dargestellt.

Führen Sie die Maus auf sie, um den Namen der Station zu sehen.

Darauf klicken, um die Beobachtung von Wetterbeobachtungen und Prognosen zu sehen.

Um die Karte zu ändern : klicken Sie auf den grünen Tasten mit einem schwarzen Kreuz Zum Vergrößern, auf den grünen Button mit einem Gedankenstrich zu verkleinern, oder auf die grünen Pfeile für benachbarte Karten.


METAR-TAF: